{"data":{"norad_id":63519,"intl_designator":"2025-071AC","name":"STARLINK-33787","alt_names":[],"object_type":"PAYLOAD","status":"ACTIVE","operator":null,"country":"US","launch_date":"2025-04-07","launch_site_code":"AFWTR","launch_vehicle":null,"mission":null,"orbit_class":"UNKNOWN","rcs_meters":null,"size_class":null,"mass_kg":null,"dimensions":null,"purposes":["comms"],"wikipedia_slug":null,"has_3d_model":false,"image_url":null,"decayed_at":null,"tle_current":{"epoch":"2026-09-20T10:48:54.669600Z","epoch_age_seconds":159984,"freshness":"FRESH","line1":"1 63519U 25071AC  26263.45063275  .00009841  00000+0  30197-3 0  9994","line2":"2 63519  53.1589 315.6060 0001193  88.7693 271.3446 15.34404633 82216","mean_motion":15.34404633,"eccentricity":0.0001193,"inclination_deg":53.1589,"raan_deg":315.606,"arg_perigee_deg":88.7693,"mean_anomaly_deg":271.3446,"bstar":0.00030197,"rev_number":8221,"period_min":93.847474716273,"perigee_km":461.87335939152,"apogee_km":463.50558058726,"semimajor_km":6840.8264699894,"source":"CELESTRAK","updated_at":"2026-09-21T09:00:35.018721Z"}}}